Regional Weather Roundup
Issued by NWS Sterling, VA

Home | Current Version | Previous Version | Text Only | Print | Product List | Glossary Off
Versions: 1 2 3 4 5 6 7 8 9 10 11 12 13 14 15 16 17 18 19 20 21 22 23 24 25 26 27

000
ASUS41 KLWX 231810
RWRLWX

REGIONAL WEATHER ROUNDUP
NATIONAL WEATHER SERVICE BALTIMORE MD/WASHINGTON DC
200 PM EDT WED APR 23 2014

Note: "FAIR" indicates few or no clouds below 12,000 feet
with no significant weather and/or obstructions to visibility.
 TC=TEMPERATURE CELSIUS

 * =Non NWS site. Station does not report precipitation (e.g. rain,
    snow, etc.), thunder, or fog.

DCZ001-MDZ009-015-VAZ040>042-051-053>054-231900-
WASHINGTON METRO

CITY           SKY/WX    TMP DP  RH WIND       PRES   REMARKS
WASHINGTON NAT MOSUNNY   61  36  39 NW20G30   29.83S
DULLES         PTSUNNY   54  34  47 NW23G35   29.84
ANDREWS AFB    MOSUNNY   58  35  41 NW23G31   29.81S
FT BELVOIR     MOSUNNY   58  34  40 NW14G30   29.83S
QUANTICO       MOSUNNY   62  33  33 N21G31    29.84S
COLLEGE PARK*  PTSUNNY   57  34  41 NW17G25   29.82R
MANASSAS*      PTSUNNY   57  36  44 NW18G31   29.85R
GAITHERSBURG*  PTSUNNY   55  36  47 NW15G28   29.86R

$$

MDZ006>007-011-014-231900-
BALTIMORE METRO

CITY           SKY/WX    TMP DP  RH WIND       PRES   REMARKS
BWI AIRPORT    MOSUNNY   57  35  43 NW22G31   29.79S
MD SCIENCE CTR   N/A     58  34  40 MISG      29.80R
MARTIN STATE   PTSUNNY   61  39  44 W28G33    29.79S
ANNAPOLIS      PTSUNNY   56  36  47 NW20G29   29.79R
FORT MEADE*    MOSUNNY   59  34  38 NW14G26   29.82S

$$

MDZ012-015-019>023-231900-
MARYLAND EASTERN SHORE

CITY           SKY/WX    TMP DP  RH WIND       PRES   REMARKS
OCEAN CITY     SUNNY     60  35  39 NW17G32   29.72S
SALISBURY      SUNNY     61  34  36 NW17G30   29.74S
BAY BRIDGE AP* MOSUNNY   57  36  44 NW16G24   29.78S
CAMBRIDGE*     SUNNY     59  34  38 NW17G28   29.77S
EASTON*        MOSUNNY   59  39  47 NW17G30   29.81S

$$

MDZ017>025-231900-
SOUTHERN MARYLAND

CITY           SKY/WX    TMP DP  RH WIND       PRES   REMARKS
PATUXENT RIVER MOSUNNY   60  33  36 NW24G31   29.79S
ST INIGOES     MOSUNNY   60  34  37 NW15G35   29.78F
LEONARDTOWN*   MOSUNNY   57  32  38 NW12G22   29.81S

$$

MDZ003>005-231900-
NORTH CENTRAL MARYLAND

CITY           SKY/WX    TMP DP  RH WIND       PRES   REMARKS
FREDERICK*     MOSUNNY   55  39  54 NW20G29   29.87R
HAGERSTOWN APT CLOUDY    50  34  54 NW23G31   29.86F
WESTMINSTER*   MOSUNNY   55  36  47 NW18G28   29.81S

$$

MDZ501>502-231900-
WESTERN MARYLAND

CITY           SKY/WX    TMP DP  RH WIND       PRES   REMARKS
OAKLAND*       CLOUDY    36  30  80 NW9G22    29.92S WCI  29
CUMBERLAND*    CLOUDY    50  32  50 W6G20     29.98R

$$

VAZ025>031-231900-
SHENANDOAH VALLEY

CITY           SKY/WX    TMP DP  RH WIND       PRES   REMARKS
WINCHESTER*    MOSUNNY   55  34  44 NW24G33   29.88R
STAUNTON*      NOT AVBL

$$

WVZ021-048>050-054>055-231900-
EASTERN WEST VIRGINIA PANHANDLE

CITY           SKY/WX    TMP DP  RH WIND       PRES   REMARKS
MARTINSBURG    MOSUNNY   55  32  41 W21G29    29.89R
PETERSBURG*    MOSUNNY   58  38  47 NW13G23   29.95R

$$

VAZ036>039-050-231900-
CENTRAL FOOTHILLS

CITY           SKY/WX    TMP DP  RH WIND       PRES   REMARKS
CHARLOTTESVILL MOSUNNY   62  31  31 N14G25    29.85R
CULPEPER*      NOT AVBL

$$

VAZ055>057-231900-
NORTH AND CENTRAL PIEDMONT

CITY           SKY/WX    TMP DP  RH WIND       PRES   REMARKS
FREDERICKSBRG* MOSUNNY   62  33  34 NW17G30   29.83S
STAFFORD*      CLOUDY    58  36  44 N16G29    29.88S

$$

NCZ024-NYZ072-PAZ021-071-VAZ022-071-231900-
OTHER REGIONAL OBSERVATIONS

CITY           SKY/WX    TMP DP  RH WIND       PRES   REMARKS
NEW YORK CITY  CLOUDY    56  34  43 VRB7      29.61S
PHILADELPHIA   PTSUNNY   59  32  36 NW28G38   29.71R
PITTSBURGH     PTSUNNY   45  33  63 NW17      30.01S
ROANOKE        MOSUNNY   64  28  25 W14G25    29.89F
RICHMOND       MOSUNNY   66  29  24 NW14G25   29.81S
RALEIGH        SUNNY     67  31  26 W9G22     29.85F

$$

ANZ530>537-231900-
MARINE OBSERVATIONS

STATION/POSITION TIME  TEMP    WIND        PRES
                       AIR SEA DIR/SP/G
                 (UTC) (F)     (DEG/KT/KT) (MB)
THOMAS PT LIGHT  1800   54 54  300/ 21/ 26 1008.8R
BALT KEY BRIDGE  1800   54     310/ 21/ 25 1008.9S
COVE POINT       1800   54     340/ 14/ 22 1008.4S
LEWISETTA        1800   56 58  320/ 21/ 28 1009.0F
SOLOMONS ISLAND  1800      55                N/A
PINEY POINT      1800          320/ 23/ 26   N/A

$$




USA.gov is the U.S. government's official web portal to all federal, state and local government web resources and services.